Flag Weather past 2 weeks in Schwerin, Mecklenburg-Western Pomerania, Germany

Now
52 °F

Passing clouds.


Feels Like: 52 °F
Forecast: 46 / 53 °F
Wind: 2 mph from Southeast

Location: Schwerin

Current Time: Oct 30, 2014 at 4:55:19 PM

Latest Report: Oct 30, 2014 at 3:00 PM


Visibility: 9 mi

Pressure: 30.27 "Hg

Humidity: 66%

Dew point: 41 °F

Location of SchwerinLocation

Historic Weather in Schwerin — Graph

°F

Schwerin temperature yesterday

Maximum temperature yesterday: 46 °F (at 11:00 PM)
Minimum temperature yesterday: 38 °F (at 6:00 AM)
Average temperature yesterday: 43 °F

Past Weeks' High & Low Weather Summary

 TemperatureHumidityPressure
High71 °F (Oct 19, 4:00 PM)100% (Oct 18, 3:00 AM)30.27 "Hg (Oct 18, 3:00 AM)
Low38 °F (Oct 29, 6:00 AM)61% (Oct 30, 2:00 PM)29.38 "Hg (Oct 21, 8:00 PM)
Average52 °F89%29.98 "Hg
* Reported Oct 15 4:00 PM — Oct 30 3:00 PM, Schwerin, Weather by CustomWeather, © 2014

Note: Actual official high and low records may vary slightly from our data, if they occured in-between our weather recording intervals... More about our weather records

Advertising

Schwerin weather history for previous 24 hours

 ConditionsComfort  
Time TempWeatherWind HumidityBarometerVisibility
3:00 PM
Oct 30
52 °FPassing clouds.2 mph66%30.27 "Hg9 mi
2:00 PM52 °FPassing clouds.2 mph61%30.27 "Hg12 mi
1:00 PM53 °FPassing clouds.2 mph69%30.27 "Hg11 mi
12:00 PM51 °FPassing clouds.2 mph76%30.27 "Hg7 mi
11:00 AM50 °FPassing clouds.2 mph82%30.27 "Hg6 mi
9:00 AM42 °FFog.1 mph99%30.26 "Hg2 mi
8:00 AM40 °FScattered clouds.1 mph100%30.25 "Hg1 mi
7:00 AM40 °FPassing clouds.1 mph100%30.23 "Hg2 mi
6:00 AM41 °FFog.1 mph98%30.21 "Hg2 mi
5:00 AM42 °FFog.1 mph100%30.20 "Hg3 mi
3:00 AM43 °FFog.2 mph98%30.18 "Hg3 mi
2:00 AM44 °FFog.2 mph98%30.17 "Hg2 mi
1:00 AM46 °FFog.2 mph98%30.15 "Hg2 mi
12:00 AM47 °FFog.2 mph98%30.15 "Hg1 mi
11:00 PM
Oct 29
46 °FFog.1 mph99%30.13 "Hg1 mi
9:00 PM46 °FLow clouds.1 mph99%30.11 "Hg2 mi
8:00 PM46 °FFog.2 mph99%30.10 "Hg1 mi
7:00 PM46 °FLow clouds.2 mph99%30.09 "Hg2 mi
6:00 PM45 °FDrizzle. Low clouds.2 mph98%30.07 "Hg1 mi
5:00 PM45 °FLight freezing rain. Low clouds.3 mph99%30.06 "Hg2 mi
4:00 PM45 °FLight rain. Low clouds.3 mph99%30.05 "Hg1 mi
Weather by CustomWeather, © 2014

See weather overviewHow to use our weather pages